Miscellaneous Local Product
Issued by NWS North Platte, NE

Home | Current Version | Previous Version | Graphics & Text | Print | Product List | Glossary On
Versions: 1 2 3 4 5 6 7 8 9 10 11 12 13 14 15 16 17 18 19 20 21 22 23 24 25 26 27 28 29 30 31 32 33 34 35 36 37 38 39 40 41 42 43 44 45 46 47 48 49 50
000
AXUS43 KLBF 011610
MISLBF


WESTERN AND NORTH CENTRAL NEBRASKA HOURLY WEATHER ROUNDUP
NATIONAL WEATHER SERVICE NORTH PLATTE NE
1100 AM CDT WED JUL 01 2015

***STATIONS NOT REPORTING VARIABLES SUCH AS SKY/WEATHER OR
PRESSURE ARE PROVIDED BY THE NEBRASKA DEPARTMENT OF
ROADS...RAWS...AND APRS NETWORKS...AND ARE NOT UNDER
NATIONAL WEATHER SERVICE QUALITY CONTROL***

...OBSERVATIONS IN AND NEAR THE EASTERN PANHANDLE OF NEBRASKA...

CITY           SKY/WX    TMP DP  RH WIND       PRES   REMARKS
PINE RIDGE     SUNNY     81  63  54 N8        30.00R
CHADRON        MOSUNNY   83  64  52 W8        30.00S
ALLIANCE       MOSUNNY   84  63  49 N13       30.02S
SIDNEY         SUNNY     84  59  42 N13       30.07R
WHITECLAY        N/A     80  63  55 S8          N/A
CRESCENT LAKE    N/A     84  64  51 N8          N/A
BIG SPRINGS      N/A     89  61  38 N5          N/A
$$

...OBSERVATIONS IN NORTH CENTRAL NEBRASKA...

CITY           SKY/WX    TMP DP  RH WIND       PRES   REMARKS
VALENTINE      SUNNY     81  68  64 NW9       29.91S
THEDFORD       SUNNY     84  67  56 N5        29.94S
AINSWORTH      SUNNY     76  67  71 N5        29.92S
O`NEILL        CLOUDY    71  67  85 E9        29.92S
ORD            CLOUDY    71  64  78 NE9       29.89S
BROKEN BOW     SUNNY     78  67  68 N9        29.90S
VALENTINE NWR    N/A     81  68  64 N9          N/A
SPRINGVIEW       N/A     76  66  71 SE3         N/A
HALSEY           N/A     79  67  65 NW5         N/A
BREWSTER         N/A     81  70  69 E7          N/A
ROSE             N/A     85  79  81 E5          N/A  HX  99
NEWPORT          N/A     73  67  80 E5          N/A
SARGENT          N/A     75  66  75 CALM        N/A
CHAMBERS         N/A     75  69  83 CALM        N/A
EWING            N/A     70  66  88 E5          N/A
$$

...OBSERVATIONS IN SOUTHWEST NEBRASKA AND FAR NORTHEAST COLORADO...

CITY           SKY/WX    TMP DP  RH WIND       PRES   REMARKS
WRAY           FAIR      88  56  34 N3        30.01S
HOLYOKE        FAIR      95  55  26 N13       30.00F HX  93
IMPERIAL       SUNNY     90  56  31 N12       29.96S
OGALLALA       SUNNY     82  66  56 NW6       29.97S
NORTH PLATTE   SUNNY     85  65  51 N8        29.92F
MCCOOK         SUNNY     85  65  51 NE12      29.90S
LEXINGTON      SUNNY     79  67  66 N9        29.90S
PAXTON           N/A     87  64  45 N6          N/A
GOTHENBURG       N/A     82  64  54 N5          N/A
CALLAWAY         N/A     81  71  71 N9          N/A
$$

...NORTH PLATTE AREA...

CITY           SKY/WX    TMP DP  RH WIND       PRES   REMARKS
AIRPORT        SUNNY     85  65  51 N8        29.92F
DOWNTOWN         N/A     82  68  62 NE3         N/A
HILLCREST        N/A     83  64  51 NE12        N/A
$$

...SOME WEATHER OBSERVATIONS FROM AROUND THE REGION...

CITY           SKY/WX    TMP DP  RH WIND       PRES   REMARKS
DENVER         MOSUNNY   82  54  37 NE9       30.16F
LARAMIE        SUNNY     71  49  45 W5        30.30F
CHEYENNE       SUNNY     77  53  43 NE13      30.21S
SCOTTSBLUFF    SUNNY     82  62  50 NW6       30.05S
RAPID CITY     SUNNY     79  59  50 N24G32    29.98F
PIERRE         CLOUDY    74  65  73 VRB5      29.88S
WINNER         FAIR      77  64  64 E6        29.89F
SIOUX FALLS    CLOUDY    66  62  87 SE12      29.93S
OMAHA          PTSUNNY   77  68  73 SE15      29.87F
GRAND ISLAND   CLOUDY    71  65  81 E9        29.89S
KANSAS CITY    PTSUNNY   75  71  87 S13       29.84R
WICHITA        MOSUNNY   91  63  39 SW16      29.80F HX  92
HAYS           PTSUNNY   84  55  37 N14       29.82R
LIBERAL        SUNNY     84  57  39 W9        29.95S
GOODLAND       MOSUNNY   85  60  42 N15       29.99R
$$



USA.gov is the U.S. government's official web portal to all federal, state and local government web resources and services.